�������l�o���
Date,Time,MP-1(��Sv/h),MP-2(��Sv/h),MP-3(��Sv/h),MP-4(��Sv/h),MP-5(��Sv/h),MP-6(��Sv/h),MP-7(��Sv/h),MP-8(��Sv/h),����,����(m/s),���J
2019/03/05,00:00,0.745,1.080,0.756,1.399,0.998,0.431,0.767,0.728,�k�k��,6.5,��
2019/03/05,00:10,0.746,1.080,0.758,1.400,0.997,0.432,0.770,0.728,�k�k��,5.8,��
2019/03/05,00:20,0.747,1.078,0.755,1.401,0.997,0.431,0.767,0.729,�k�k��,6.0,��
2019/03/05,00:30,0.746,1.079,0.757,1.401,0.997,0.433,0.768,0.731,�k��,6.0,��
2019/03/05,00:40,0.748,1.081,0.757,1.399,0.999,0.431,0.769,0.729,�k�k��,6.1,��
2019/03/05,00:50,0.748,1.082,0.757,1.402,0.999,0.431,0.768,0.729,�k��,6.7,��
2019/03/05,01:00,0.747,1.079,0.757,1.400,0.997,0.433,0.769,0.728,�k��,6.6,��
2019/03/05,01:10,0.747,1.079,0.755,1.401,0.998,0.433,0.767,0.728,�k��,6.5,��
2019/03/05,01:20,0.747,1.080,0.758,1.401,0.997,0.433,0.768,0.729,�k�k��,6.4,��
2019/03/05,01:30,0.746,1.079,0.756,1.401,1.000,0.432,0.767,0.729,�k�k��,6.8,��
2019/03/05,01:40,0.749,1.077,0.756,1.401,0.998,0.431,0.768,0.730,�k�k��,6.3,��
2019/03/05,01:50,0.748,1.081,0.757,1.401,0.999,0.432,0.769,0.729,�k�k��,7.1,��
2019/03/05,02:00,0.746,1.082,0.759,1.402,1.000,0.431,0.768,0.729,�k�k��,5.9,��
2019/03/05,02:10,0.746,1.082,0.757,1.401,1.000,0.432,0.769,0.729,�k�k��,5.4,��
2019/03/05,02:20,0.746,1.082,0.758,1.402,0.998,0.432,0.769,0.729,�k�k��,6.0,��
2019/03/05,02:30,0.747,1.081,0.758,1.402,0.999,0.432,0.768,0.730,�k�k��,6.8,��
2019/03/05,02:40,0.748,1.081,0.758,1.401,0.998,0.431,0.770,0.728,�k�k��,7.8,��
2019/03/05,02:50,0.749,1.083,0.760,1.403,0.998,0.430,0.767,0.730,�k�k��,8.4,��
2019/03/05,03:00,0.748,1.085,0.758,1.402,1.000,0.433,0.768,0.730,�k�k��,8.4,��
2019/03/05,03:10,0.747,1.080,0.757,1.401,1.000,0.434,0.769,0.730,�k�k��,7.5,��
2019/03/05,03:20,0.748,1.083,0.760,1.405,0.998,0.432,0.769,0.731,�k�k��,8.5,��
2019/03/05,03:30,0.747,1.082,0.756,1.404,1.001,0.432,0.770,0.730,�k�k��,8.4,��
2019/03/05,03:40,0.747,1.080,0.757,1.404,1.000,0.432,0.769,0.729,�k�k��,7.8,��
2019/03/05,03:50,0.746,1.081,0.759,1.404,0.999,0.433,0.769,0.728,�k�k��,8.4,��
2019/03/05,04:00,0.747,1.082,0.760,1.404,1.000,0.432,0.768,0.729,�k�k��,8.1,��
2019/03/05,04:10,0.748,1.081,0.758,1.401,0.999,0.432,0.769,0.729,�k�k��,7.4,��
2019/03/05,04:20,0.748,1.083,0.757,1.405,0.998,0.433,0.768,0.729,�k�k��,6.3,��
2019/03/05,04:30,0.748,1.083,0.758,1.402,0.998,0.431,0.769,0.729,�k��,7.3,��
2019/03/05,04:40,0.746,1.083,0.757,1.402,1.000,0.432,0.769,0.729,�k��,6.2,��
2019/03/05,04:50,0.746,1.083,0.759,1.404,1.001,0.433,0.769,0.729,�k��,6.5,��
2019/03/05,05:00,0.749,1.083,0.759,1.401,1.000,0.432,0.768,0.731,�k��,7.1,��
2019/03/05,05:10,0.745,1.083,0.759,1.404,1.001,0.432,0.769,0.731,�k��,7.1,��
2019/03/05,05:20,0.748,1.083,0.758,1.401,1.000,0.431,0.770,0.730,�k�k��,7.5,��
2019/03/05,05:30,0.747,1.084,0.759,1.404,1.001,0.431,0.771,0.729,�k�k��,6.7,��
2019/03/05,05:40,0.746,1.081,0.759,1.404,1.001,0.432,0.769,0.730,�k�k��,6.9,��
2019/03/05,05:50,0.747,1.080,0.759,1.406,1.000,0.433,0.769,0.729,�k�k��,6.7,��
2019/03/05,06:00,0.749,1.082,0.758,1.405,1.002,0.431,0.769,0.731,�k�k��,6.6,��
2019/03/05,06:10,0.749,1.084,0.757,1.405,1.001,0.432,0.768,0.730,�k�k��,6.9,��
2019/03/05,06:20,0.745,1.084,0.759,1.404,1.001,0.432,0.769,0.729,�k�k��,7.0,��
2019/03/05,06:30,0.749,1.085,0.757,1.406,1.002,0.432,0.770,0.730,�k�k��,6.6,��
2019/03/05,06:40,0.748,1.086,0.760,1.403,1.003,0.433,0.769,0.730,�k�k��,6.4,��
2019/03/05,06:50,0.746,1.085,0.759,1.406,1.002,0.432,0.769,0.731,�k�k��,6.2,��
2019/03/05,07:00,0.749,1.085,0.758,1.406,1.001,0.431,0.767,0.730,�k�k��,6.0,��
2019/03/05,07:10,0.749,1.083,0.758,1.405,1.000,0.431,0.770,0.730,�k�k��,6.7,��
2019/03/05,07:20,0.746,1.081,0.757,1.406,0.999,0.432,0.770,0.731,�k�k��,6.9,��
2019/03/05,07:30,0.747,1.083,0.758,1.403,1.000,0.431,0.769,0.729,�k,6.0,��
2019/03/05,07:40,0.748,1.087,0.759,1.403,1.002,0.431,0.768,0.729,�k,5.8,��
2019/03/05,07:50,0.748,1.084,0.758,1.406,1.002,0.433,0.770,0.731,�k�k��,4.8,��
2019/03/05,08:00,0.751,1.084,0.758,1.406,1.001,0.432,0.770,0.732,�k,5.0,��
2019/03/05,08:10,0.747,1.084,0.758,1.405,1.002,0.433,0.769,0.731,�k�k��,4.5,��
2019/03/05,08:20,0.749,1.082,0.761,1.404,1.002,0.430,0.769,0.729,�k�k��,5.0,��
2019/03/05,08:30,0.750,1.085,0.757,1.406,1.001,0.433,0.768,0.729,�k,4.4,��
2019/03/05,08:40,0.748,1.085,0.759,1.407,1.001,0.431,0.768,0.731,�k,4.0,��
2019/03/05,08:50,0.749,1.084,0.758,1.406,1.002,0.431,0.768,0.730,�k,3.9,��
2019/03/05,09:00,0.750,1.084,0.761,1.404,1.002,0.433,0.768,0.732,�k,3.3,��
2019/03/05,09:10,0.750,1.085,0.759,1.407,1.003,0.432,0.768,0.730,�k,3.4,��
2019/03/05,09:20,0.750,1.082,0.758,1.404,1.003,0.432,0.768,0.731,�k�k��,4.6,��
2019/03/05,09:30,0.748,1.083,0.759,1.402,1.004,0.432,0.768,0.730,�k�k��,6.0,��
2019/03/05,09:40,0.750,1.086,0.759,1.404,1.006,0.432,0.769,0.732,�k�k��,6.0,��
2019/03/05,09:50,0.749,1.085,0.759,1.404,1.005,0.433,0.768,0.730,�k�k��,5.1,��
2019/03/05,10:00,0.746,1.085,0.757,1.402,1.006,0.432,0.769,0.731,�k�k��,5.3,��
2019/03/05,10:10,0.746,1.085,0.760,1.402,1.006,0.433,0.768,0.733,�k�k��,4.8,��
2019/03/05,10:20,0.749,1.086,0.761,1.402,1.010,0.431,0.766,0.730,�k�k��,4.5,��
2019/03/05,10:30,0.749,1.083,0.760,1.404,1.007,0.432,0.766,0.732,�k�k��,4.2,��
2019/03/05,10:40,0.750,1.083,0.759,1.404,1.009,0.433,0.769,0.731,�k�k��,4.1,��
2019/03/05,10:50,0.748,1.087,0.759,1.405,1.007,0.432,0.766,0.729,�k��,4.5,��
2019/03/05,11:00,0.751,1.090,0.760,1.405,1.007,0.432,0.768,0.729,�k��,4.4,��
2019/03/05,11:10,0.752,1.083,0.761,1.404,1.007,0.433,0.769,0.729,�k��,4.5,��
2019/03/05,11:20,0.752,1.087,0.759,1.404,1.008,0.432,0.767,0.730,�k��,5.3,��
2019/03/05,11:30,0.750,1.088,0.761,1.408,1.010,0.432,0.767,0.729,�k��,5.5,��
2019/03/05,11:40,0.753,1.089,0.762,1.407,1.009,0.431,0.769,0.730,�k��,4.3,��
2019/03/05,11:50,0.752,1.091,0.761,1.409,1.006,0.432,0.770,0.731,�k��,4.3,��
2019/03/05,12:00,0.751,1.093,0.761,1.410,1.011,0.433,0.770,0.732,�k��,4.4,��
2019/03/05,12:10,0.753,1.091,0.764,1.409,1.009,0.433,0.769,0.732,���k��,4.1,��
2019/03/05,12:20,0.754,1.092,0.763,1.410,1.011,0.433,0.768,0.731,���k��,4.4,��
2019/03/05,12:30,0.753,1.090,0.764,1.411,1.013,0.435,0.767,0.732,�k��,4.8,��
2019/03/05,12:40,0.752,1.093,0.762,1.410,1.011,0.435,0.769,0.732,�k��,4.6,��
2019/03/05,12:50,0.754,1.091,0.763,1.410,1.011,0.434,0.769,0.731,���k��,4.7,��
2019/03/05,13:00,0.755,1.093,0.763,1.411,1.011,0.433,0.769,0.730,�k��,4.7,��
2019/03/05,13:10,0.754,1.095,0.762,1.409,1.012,0.433,0.769,0.732,�k��,4.5,��
2019/03/05,13:20,0.753,1.093,0.765,1.412,1.014,0.434,0.767,0.731,�k��,4.4,��
2019/03/05,13:30,0.755,1.094,0.763,1.413,1.012,0.434,0.770,0.733,�k��,4.4,��
2019/03/05,13:40,0.756,1.092,0.760,1.413,1.014,0.434,0.770,0.732,���k��,4.5,��
2019/03/05,13:50,0.753,1.095,0.761,1.412,1.011,0.433,0.769,0.732,���k��,4.6,��
2019/03/05,14:00,0.756,1.094,0.760,1.413,1.015,0.435,0.771,0.730,�k��,3.4,��
2019/03/05,14:10,0.756,1.096,0.761,1.412,1.013,0.433,0.769,0.731,�k��,3.8,��
2019/03/05,14:20,0.755,1.095,0.762,1.411,1.012,0.435,0.771,0.731,���k��,3.5,��
2019/03/05,14:30,0.754,1.095,0.765,1.412,1.010,0.435,0.770,0.730,�k��,3.3,��
2019/03/05,14:40,0.756,1.095,0.765,1.412,1.015,0.433,0.769,0.731,���k��,3.1,��
2019/03/05,14:50,0.755,1.095,0.765,1.413,1.013,0.434,0.766,0.728,�k�k��,2.6,��
2019/03/05,15:00,0.755,1.097,0.765,1.413,1.015,0.435,0.769,0.729,�k��,2.6,��
2019/03/05,15:10,0.755,1.098,0.765,1.413,1.017,0.435,0.766,0.730,�k��,2.8,��
2019/03/05,15:20,0.755,1.101,0.764,1.413,1.016,0.435,0.769,0.729,���k��,1.7,��
2019/03/05,15:30,0.754,1.100,0.762,1.412,1.015,0.434,0.768,0.729,��,2.0,��
2019/03/05,15:40,0.757,1.102,0.765,1.415,1.015,0.433,0.770,0.731,���k��,2.5,��
2019/03/05,15:50,0.755,1.100,0.764,1.412,1.015,0.434,0.768,0.731,���k��,2.6,��
2019/03/05,16:00,0.758,1.100,0.764,1.413,1.017,0.435,0.770,0.733,���k��,1.9,��
2019/03/05,16:10,0.755,1.099,0.765,1.415,1.016,0.433,0.770,0.733,��,2.3,��
2019/03/05,16:20,0.755,1.103,0.764,1.413,1.017,0.434,0.769,0.733,���k��,1.9,��
2019/03/05,16:30,0.755,1.102,0.764,1.412,1.016,0.434,0.771,0.734,���쓌,2.3,��
2019/03/05,16:40,0.756,1.102,0.765,1.412,1.019,0.435,0.771,0.732,�쓌,1.9,��
2019/03/05,16:50,0.755,1.103,0.766,1.414,1.017,0.436,0.770,0.731,���쓌,1.5,��
2019/03/05,17:00,0.756,1.101,0.765,1.412,1.017,0.434,0.772,0.733,�쓌,1.4,��
2019/03/05,17:10,0.755,1.102,0.766,1.412,1.018,0.433,0.774,0.731,��쓌,1.7,��
2019/03/05,17:20,0.754,1.101,0.765,1.413,1.018,0.434,0.772,0.733,��쓌,0.9,��
2019/03/05,17:30,0.754,1.100,0.766,1.409,1.017,0.435,0.771,0.733,��쓌,1.2,��
2019/03/05,17:40,0.754,1.100,0.765,1.410,1.017,0.435,0.770,0.732,��쓌,1.2,��
2019/03/05,17:50,0.753,1.101,0.764,1.413,1.016,0.437,0.773,0.732,��쓌,1.9,��
2019/03/05,18:00,0.753,1.101,0.764,1.413,1.016,0.435,0.770,0.732,��쓌,2.2,��
2019/03/05,18:10,0.755,1.101,0.766,1.414,1.015,0.434,0.773,0.731,��,2.3,��
2019/03/05,18:20,0.755,1.102,0.763,1.414,1.019,0.435,0.771,0.733,��,2.8,��
2019/03/05,18:30,0.755,1.102,0.764,1.411,1.018,0.434,0.771,0.733,��,2.9,��
2019/03/05,18:40,0.754,1.100,0.764,1.414,1.017,0.435,0.770,0.732,��,2.6,��
2019/03/05,18:50,0.753,1.101,0.765,1.414,1.018,0.434,0.770,0.732,��,2.3,��
2019/03/05,19:00,0.753,1.102,0.765,1.413,1.017,0.434,0.771,0.732,��,2.5,��
2019/03/05,19:10,0.752,1.103,0.764,1.412,1.018,0.433,0.770,0.732,��,2.9,��
2019/03/05,19:20,0.755,1.102,0.763,1.412,1.017,0.433,0.771,0.730,��쐼,3.1,��
2019/03/05,19:30,0.754,1.100,0.765,1.411,1.020,0.433,0.768,0.733,��,3.7,��
2019/03/05,19:40,0.753,1.100,0.764,1.413,1.016,0.434,0.771,0.732,��쐼,3.5,��
2019/03/05,19:50,0.756,1.100,0.765,1.413,1.017,0.435,0.771,0.732,��,2.0,��
2019/03/05,20:00,0.754,1.101,0.765,1.412,1.018,0.434,0.771,0.732,��쐼,2.6,��
2019/03/05,20:10,0.753,1.101,0.763,1.412,1.015,0.434,0.770,0.732,��쐼,3.1,��
2019/03/05,20:20,0.754,1.102,0.763,1.411,1.019,0.433,0.769,0.731,��,3.4,��
2019/03/05,20:30,0.755,1.099,0.763,1.412,1.018,0.434,0.771,0.732,��,3.7,��
2019/03/05,20:40,0.752,1.099,0.764,1.413,1.018,0.434,0.770,0.733,��,3.4,��
2019/03/05,20:50,0.756,1.104,0.766,1.414,1.018,0.432,0.769,0.731,��,4.4,��
2019/03/05,21:00,0.754,1.097,0.762,1.411,1.015,0.434,0.769,0.733,��,4.2,��
2019/03/05,21:10,0.754,1.101,0.765,1.412,1.016,0.434,0.771,0.733,��,4.2,��
2019/03/05,21:20,0.751,1.098,0.764,1.413,1.018,0.434,0.770,0.731,��,5.2,��
2019/03/05,21:30,0.753,1.100,0.763,1.411,1.017,0.432,0.769,0.732,��,6.2,��
2019/03/05,21:40,0.754,1.099,0.763,1.413,1.019,0.433,0.770,0.731,��,6.5,��
2019/03/05,21:50,0.753,1.101,0.764,1.414,1.017,0.433,0.771,0.733,��,6.7,��
2019/03/05,22:00,0.752,1.099,0.763,1.412,1.018,0.433,0.770,0.731,��,6.5,��
2019/03/05,22:10,0.751,1.102,0.763,1.412,1.018,0.433,0.770,0.733,��,7.0,��
2019/03/05,22:20,0.754,1.100,0.764,1.413,1.016,0.434,0.770,0.731,��,6.6,��
2019/03/05,22:30,0.752,1.098,0.765,1.411,1.018,0.432,0.771,0.732,��,5.4,��
2019/03/05,22:40,0.754,1.100,0.763,1.411,1.017,0.432,0.769,0.733,��쐼,4.5,��
2019/03/05,22:50,0.754,1.100,0.765,1.412,1.016,0.433,0.769,0.732,��,3.4,��
2019/03/05,23:00,0.753,1.100,0.762,1.413,1.017,0.435,0.770,0.733,��쐼,3.1,��
2019/03/05,23:10,0.753,1.098,0.764,1.413,1.017,0.432,0.770,0.731,�쐼,3.7,��
2019/03/05,23:20,0.752,1.100,0.764,1.410,1.016,0.432,0.771,0.733,��쐼,4.5,��
2019/03/05,23:30,0.753,1.101,0.764,1.411,1.014,0.433,0.770,0.733,��쐼,4.5,��
2019/03/05,23:40,0.751,1.099,0.763,1.412,1.016,0.434,0.770,0.733,��쐼,4.9,��
2019/03/05,23:50,0.752,1.099,0.763,1.412,1.017,0.434,0.767,0.732,��쐼,4.1,��
